sat.trackr.live / text

‹ back to catalog

UNKNOWN

NORAD 87934

UNKNOWN UNKNOWN UNKNOWN

§ Identity

Operator
Country
Launch date
Launch site
Launch vehicle
Mass (kg)
RCS (m²)

External: N2YO · Heavens-Above

§ Orbital elements

Epoch: 2026-09-15T20:16:14.689344Z

Period
104.87 min
Inclination
82.9323°
Eccentricity
0.0030469
Mean motion
13.73147982 rev/d
Perigee alt
965.8 km
Apogee alt
1,010.7 km
Semi-major
7,366.4 km
B*
3.7219e-5
RAAN
94.9212°
Arg perigee
348.2095°
Mean anomaly
27.1376°
Rev number
64,234

§ Raw data

UNKNOWN1 87934U          26258.84461446  .00000049  00000+0  37219-4 0  99992 87934  82.9323  94.9212 0030469 348.2095  27.1376 13.73147982642340

JSON: /api/v1/satellites/87934 · /tle

For live sub-satellite position, see the globe view (requires WebGL).

§ Visibility from observer

Set your observer location to see the next 7 days of passes ≥ 10°. The values pass through the URL so the page stays shareable.

No JS? Fill the form by hand. The geolocation button needs JavaScript.